Regional Weather Roundup
Issued by NWS

Home | Current Version | Previous Version | Graphics & Text | Print | Product List | Glossary On
Versions: 1 2 3 4 5 6 7 8 9 10 11 12 13 14 15 16 17 18 19 20 21 22 23 24 25 26 27
000
ASUS45 KBOU 110810
RWRCO

WEATHER ROUNDUP FOR COLORADO
NATIONAL WEATHER SERVICE DENVER/BOULDER CO
100 AM MST MON DEC 11 2017

NOTE: "FAIR" INDICATES FEW OR NO CLOUDS BELOW 12000 FEET WITH NO
SIGNIFICANT WEATHER AND/OR OBSTRUCTIONS TO VISIBILITY.

COZ001>005-013-030-031-110900-
...NORTHWEST COLORADO...

CITY           SKY/WX    TMP DP  RH WIND       PRES   REMARKS
CRAIG          FAIR       6   1  80 CALM      30.55F
HAYDEN         FAIR      20   8  60 E13       30.55S WCI   7
MEEKER         FAIR      15   3  59 E6        30.55R WCI   6
RABBIT EARS PA FAIR      23   3  42 W10G20    30.55S WCI  12
STEAMBOAT SPGS FAIR      15   8  71 E3        30.54F
WALDEN         FAIR       9  -2  61 SE9       30.53F WCI  -5
$$

COZ006>008-011-110900-
...WEST CENTRAL VALLEYS...

CITY           SKY/WX    TMP DP  RH WIND       PRES   REMARKS
GRAND JUNCTION FAIR      23   3  42 E8        30.53F WCI  14
MONTROSE       FAIR      19  -1  41 S9        30.57F WCI   8
EAGLE          FAIR      10   5  80 CALM      30.64R
RIFLE          FAIR      18   2  49 S3        30.56S
DELTA          FAIR      20  -2  38 N5        30.56F WCI  13
NUCLA          FAIR      21  -9  25 E5        30.56F WCI  15
$$

COZ017>023-064>068-110900-
...SOUTHWEST COLORADO...

CITY           SKY/WX    TMP DP  RH WIND       PRES   REMARKS
DURANGO        FAIR      16   0  49 CALM      30.48S
CORTEZ         FAIR      12  -1  56 E5        30.51S WCI   4
PAGOSA SPRINGS FAIR      19  -3  37 CALM      30.49S
TELLURIDE      FAIR      28  -8  20 SE6       30.58S WCI  22
WOLF CREEK PAS FAIR      28  -9  19 NW8       30.65S WCI  20
$$

COZ009-010-012-014-032>034-037-058>063-110900-
...CENTRAL COLORADO...

CITY           SKY/WX    TMP DP  RH WIND       PRES   REMARKS
ASPEN          FAIR      18   1  47 CALM      30.53F
BUENA VISTA    FAIR      21  -5  32 CALM      30.50F
COPPER MTN     NOT AVBL
BERTHOUD PASS  FAIR      19   9  63 NW20G32   30.56S WCI   4
COTTONWOOD PAS FAIR      39 -13  10 NW7       30.52F
GUNNISON       FAIR       5  -3  69 CALM      30.61
KREMMLING      FOG        5   1  85 CALM      30.64R VSB 1/2
LEADVILLE      FAIR      12 -13  31 CALM      30.53F HAZE
MONARCH PASS   FAIR      28 -11  17 N6        30.70R WCI  22
SALIDA         FAIR      24  -3  29 SW7       30.57S WCI  16
SUNLIGHT       FAIR      30 -18  11 NW9       30.62S WCI  22
WILKERSON PASS FAIR      32 -15  12 NW12G18   30.55S WCI  23
$$

COZ069>075-110900-
...SAN LUIS VALLEY/SANGRE DE CRISTO MOUNTAINS...

CITY           SKY/WX    TMP DP  RH WIND       PRES   REMARKS
ALAMOSA        FAIR       4  -9  55 NW5       30.52S WCI  -5
DEL NORTE      FAIR      16 -11  30 W13       30.53S WCI   2
LA VETA PASS   FAIR      28 -11  17 SW23        N/A  WCI  14
SAGUACHE       FAIR      23  -9  23 N8        30.52F WCI  14
$$

COZ035-036-038>040-110900-
...NORTHERN COLORADO FRONT RANGE...

CITY           SKY/WX    TMP DP  RH WIND       PRES   REMARKS
DENVER INTL AP FAIR      38  -4  16 SW9       30.32R
DMNS CITY PARK NOT AVBL
AURORA         CLEAR     38  -4  16 S10       30.33R
FRONT RANGE AP FAIR      42  -4  14 SW10G18   30.33R
ERIE MUNI ARPT FAIR      23   8  53 CALM      30.39R
BOULDER MUN AP FAIR      41   3  20 CALM      30.33R
CENTENNIAL     FAIR      38   0  20 W13       30.33S
BROOMFIELD     FAIR      46  -4  12 N15       30.33R
FORT COLLINS   FAIR      26  13  57 VRB3      30.33R
LONGMONT       FAIR      27  11  51 CALM      30.34S
$$

COZ041-046-047-076>085-087-088-110900-
...PIKES PEAK/PALMER DIVIDE AND SOUTHERN FOOTHILLS...

CITY           SKY/WX    TMP DP  RH WIND       PRES   REMARKS
COLO. SPRINGS  FAIR      37  -3  18 N8        30.35F
A. F. ACADEMY  FAIR      24  -5  27 NE7       30.35F WCI  16
SCHRIEVER AFB  FAIR      46  -6  11 NW12      30.34F
CHEYENNE MTN   FAIR      48  -5  11 NW10      30.31F
ELLICOTT         N/A    N/A N/A N/A N3        30.33F
FALCON         FAIR      37  -8  15 NW12      30.37F
FORT CARSON    FAIR      34  -3  20 N9        30.32F WCI  27
LIMON          FAIR      20  -5  33 NW7       30.32S WCI  11
MONUMENT HILL  FAIR      32  -4  21 SW9       30.38S WCI  24
CANON CITY     FAIR      43  -4  14 W20       30.35S
WALSENBURG     FAIR      43  -6  13 SW13      30.37S
TRINIDAD       FAIR      28   5  37 W12       30.35S WCI  18
$$

COZ042>045-048>051-090-091-110900-
...NORTHEAST COLORADO...

CITY           SKY/WX    TMP DP  RH WIND       PRES   REMARKS
GREELEY ARPT   FAIR      18   3  52 NW5       30.33F WCI  11
AKRON          FAIR      31  -2  24 W14       30.29S WCI  21
BURLINGTON     FAIR      28   2  32 W10       30.27S WCI  19
WRAY           FAIR      32   3  29 W8        30.25F WCI  25
YUMA           FAIR      27   3  36 W10       30.27S WCI  17
STERLING       FAIR      23   5  46 S7        30.28F WCI  15
HOLYOKE        FAIR      37   5  25 W15       30.24S
FORT MORGAN    FAIR      24   1  38 W7        30.31F WCI  16
$$

COZ086-089-092>099-110900-
...SOUTHEAST COLORADO...

CITY           SKY/WX    TMP DP  RH WIND       PRES   REMARKS
PUEBLO         FAIR      25   1  35 W9        30.33S WCI  15
LA JUNTA       FAIR      20   3  48 W7        30.32S WCI  11
LAMAR          FAIR      19   1  45 SW3       30.29R
SPRINGFIELD      N/A     30   5  34 W13       30.28S WCI  20
$$




USA.gov is the U.S. government's official web portal to all federal, state and local government web resources and services.